Regional Weather Roundup
Issued by NWS

Home | Current Version | Previous Version | Text Only | Print | Product List | Glossary Off
Versions: 1 2 3 4 5 6 7 8 9 10 11 12 13 14 15 16 17 18 19 20 21 22 23 24 25 26 27 28 29 30 31 32 33 34 35 36 37 38 39 40 41 42 43 44 45 46 47 48 49 50

000
ASUS43 KMPX 040110
RWRMN
WEATHER ROUNDUP FOR MINNESOTA
NATIONAL WEATHER SERVICE TWIN CITIES/CHANHASSEN MN
800 PM CDT MON AUG 03 2015


NOTE: "FAIR" INDICATES FEW OR NO CLOUDS BELOW 12,000 FEET WITH NO
SIGNIFICANT WEATHER AND/OR OBSTRUCTIONS TO VISIBILITY. N/A MEANS
CURRENT SKY AND/OR WEATHER CONDITIONS ARE NOT AVAILABLE.

MNZ060>063-068>070-040200-
   Twin Cities Metro

CITY           SKY/WX    TMP DP  RH WIND       PRES   REMARKS
TWIN CITIES    PTCLDY    76  51  41 NW12      29.89S
ST PAUL        MOCLDY    75  52  44 W12       29.88S
CRYSTAL        MOCLDY    76  52  43 W9        29.88R
BLAINE         PTCLDY    75  52  43 NW5       29.89R
LAKEVILLE      CLEAR     72  54  53 W5        29.90S
EDEN PRAIRIE   CLEAR     75  53  46 W6        29.89S
SOUTH ST PAUL  MOCLDY    75  50  40 W8        29.89S
LAKE ELMO      FAIR      70  54  56 W3        29.90S
$$
MNZ001>005-007-008-013>017-022>024-027-028-040200-
   Northwest Minnesota

CITY           SKY/WX    TMP DP  RH WIND       PRES   REMARKS
BEMIDJI        PTCLDY    66  49  53 N6        29.91S
HALLOCK        CLEAR     73  48  40 N6        29.89S
ROSEAU         CLEAR     66  55  68 NW6       29.90R
WARROAD        PTCLDY    68  55  64 NW6       29.90R
THIEF RVR FALL CLEAR     70  48  46 NW5       29.92S
CROOKSTON      CLEAR     73  52  46 CALM      29.92R
FOSSTON        CLEAR     70  48  46 NW5       29.93S
DETROIT LAKES  CLEAR     72  50  46 N3        29.94F
MOORHEAD       CLEAR     70  54  56 N5        29.92F
PARK RAPIDS    CLEAR     70  49  47 NW10      29.93R
MAHNOMEN       FAIR      69  52  54 N6        29.92S
$$
MNZ006-009>011-018-025>026-040200-
   North Central Minnesota

CITY           SKY/WX    TMP DP  RH WIND       PRES   REMARKS
BAUDETTE       MOCLDY    67  54  63 N3        29.88R
FLAG ISLAND    PTCLDY    66  52  59 NW16      29.87R
INTL FALLS     CLOUDY    63  53  70 NW7       29.87S
WASKISH        CLEAR     66  52  59 W10       29.89S
BIG FORK       CLEAR     64  52  63 CALM      29.90S
LONGVILLE      CLEAR     66  52  59 NW5       29.92R
GRAND RAPIDS   CLEAR     64  48  55 NW9       29.91S
CRANE LAKE     MOCLDY    61  55  82 W2        29.87S
ORR            CLOUDY    61  54  77 CALM      29.86S
COOK           CLOUDY    59  55  88 CALM      29.89S
WALKER         FAIR      67  49  53 NW3       29.91S
$$
MNZ012-019>021-037-040200-
   Northeast Minnesota

CITY           SKY/WX    TMP DP  RH WIND       PRES   REMARKS
DULUTH         MOCLDY    67  52  58 NW12      29.87R
ELY            MOCLDY    57  55  94 W7        29.86R
HIBBING        CLOUDY    64  51  62 NW12      29.89R
EVELETH        CLOUDY    63  52  67 N10G21    29.90R
DULUTH HARBOR  CLOUDY    70  55  60 W17       29.86R
TWO HARBORS    CLOUDY    66  57  72 N3        29.85R
SILVER BAY     MOCLDY    63  55  77 W3        29.84S
GRAND MARAIS     N/A     65  53  65 CALM      29.78R
G MARAIS ARPRT PTCLDY    57  52  82 W3        29.82S
$$
MNZ029>031-032-039>041-046>048-054>057-064-040200-
   West Central Minnesota

CITY           SKY/WX    TMP DP  RH WIND       PRES   REMARKS
FERGUS FALLS   CLEAR     72  52  49 N3        29.92S
WHEATON        CLEAR     70  52  52 N5        29.95S
MORRIS         CLEAR     72  54  53 N6        29.93S
ALEXANDRIA     CLEAR     72  49  44 NW8       29.95R
ELBOW LAKE     FAIR      71  53  51 N5        29.93S
WADENA         CLEAR     70  50  49 NW9       29.93R
GLENWOOD       CLEAR     72  52  49 NW6       29.95R
APPLETON       CLEAR     73  52  46 N5        29.93S
BENSON         CLEAR     72  50  46 N6        29.93S
ORTONVILLE     CLEAR     73  54  49 N5        29.94S
MADISON        CLEAR     73  52  46 N8        29.94R
WILLMAR        FAIR      73  54  49 NW7       29.94S
$$
MNZ033>034-036-042>043-049>051-058-059-040200-
   Central Minnesota

CITY           SKY/WX    TMP DP  RH WIND       PRES   REMARKS
ST CLOUD       CLEAR     72  52  49 NW7       29.90R
SAUK CENTRE    FAIR      72  49  45 NW8G17    29.93R
PAYNESVILLE    CLEAR     69  51  52 W5        29.93S
AITKIN         PTCLDY    68  54  60 NW5       29.89S
PINE RIVER     PTCLDY    70  52  52 N10       29.95R
BRAINERD       PTCLDY    70  51  51 NW7       29.91R
STAPLES        CLEAR     70  48  46 NW8       29.92S
LONG PRAIRIE   FAIR      70  52  52 NW6       29.93S
LITTLE FALLS     N/A     72  48  43 NW6       29.91S
LITCHFIELD     CLEAR     73  52  46 NW7       29.93R
BUFFALO        PTCLDY    74  50  42 W7        29.91S
MAPLE LAKE     CLEAR     72  55  56 W3        29.91S
$$
MNZ037-044-045-052-053-040200-
   East Central Minnesota

CITY           SKY/WX    TMP DP  RH WIND       PRES   REMARKS
PRINCETON      CLEAR     73  55  53 CALM      29.90R
MORA           PTCLDY    70  55  60 NW5       29.91R
CAMBRIDGE      CLOUDY    75  55  50 NW7       29.88R
RUSH CITY      MOCLDY    69  56  63 NW3       29.89R
MOOSE LAKE     MOCLDY    68  54  60 NW7       29.88R
HINCKLEY       CLOUDY    70  57  64 NW3       29.89R
CLOQUET        CLOUDY    66  50  55 NW12G18   29.89R
MCGREGOR       CLEAR     68  54  60 NW12      29.91R
$$
MNZ071>073-080-081-089-090-097-098-040200-
   Southwest Minnesota

CITY           SKY/WX    TMP DP  RH WIND       PRES   REMARKS
MONTEVIDEO     CLEAR     73  54  49 N5        29.95S
GRANITE FALLS  CLEAR     73  56  53 NW3       29.95R
CANBY          CLEAR     74  55  51 NW3       29.95S
MARSHALL       CLEAR     73  54  49 N5        29.96S
REDWOOD FALLS  CLEAR     75  52  44 NW7       29.93R
OLIVIA         CLEAR     70  54  56 NW3       29.93R
PIPESTONE      CLEAR     75  55  50 N3        29.97R
WINDOM         CLEAR     73  59  60 CALM      29.95R
WORTHINGTON    CLEAR     73  57  56 W5        29.96S
JACKSON        CLEAR     73  59  60 NW5       29.96R
TRACY          CLEAR     73  59  60 N5        29.95S
SLAYTON        CLEAR     74  58  58 CALM      29.97R
$$
MNZ065>067-074>077-082>085-091>093-040200-
   South Central Minnesota

CITY           SKY/WX    TMP DP  RH WIND       PRES   REMARKS
MANKATO        CLEAR     73  52  46 NW6       29.92S
NEW ULM        CLEAR     73  52  46 NW7       29.93R
ST JAMES       CLEAR     72  61  68 NW3       29.94
FAIRMONT       CLEAR     73  55  53 N3        29.93S
GLENCOE        CLEAR     73  57  57 NW6       29.91S
FARIBAULT      CLEAR     70  55  60 W5        29.92S
OWATONNA       CLEAR     70  54  56 W5        29.93R
WASECA         CLEAR     70  55  60 NW3       29.94S
ALBERT LEA     CLEAR     72  55  56 CALM      29.93S
$$
MNZ078>079-086>088-094>096-040200-
   Southeast Minnesota

CITY           SKY/WX    TMP DP  RH WIND       PRES   REMARKS
ROCHESTER      CLEAR     68  54  60 W7        29.93S
RED WING       PTCLDY    72  54  53 CALM      29.88R
STANTON        CLEAR     71  54  54 W3        29.90S
DODGE CENTER   CLEAR     70  54  56 NW5       29.93S
WINONA         PTCLDY    73  52  46 W5        29.89S
AUSTIN         CLEAR     72  54  53 NW3       29.93R
PRESTON        CLEAR     68  53  58 NW6       29.93R
$$
ABBREVIATIONS USED IN REMARKS
   TC - TEMPERATURES IN CELSIUS
  WCI - WIND CHILL INDEX
   HX - HEAT INDEX
  VSB - VISIBILITY
$$



USA.gov is the U.S. government's official web portal to all federal, state and local government web resources and services.